Simultaneous Nadir Overpasses (SNOs) Predictions

Prediction of SNOs between GOES-17 and LANDSAT-8 Satellite Orbit:

Table of predicted SNOs for the next 14.0 days since TLE Epoch: 6/15/2022
Index Date Time (GOES-17) GOES-17 Lat,Lon LANDSAT-8 Lat,Lon Distance(km) Time Diff (sec)
1 06/17/2022 19:16:33 0.04,-137.19 -0.24,-135.74 164.28 80
2 06/18/2022 07:35:18 -0.03,-137.18 -0.83,-140.94 426.94 80
3 06/19/2022 19:04:24 0.03,-137.18 -0.90,-132.79 499.46 80
4 06/20/2022 07:23:07 -0.03,-137.18 -0.23,-137.98 91.77 80
5 06/22/2022 07:13:37 -0.03,-137.17 0.45,-135.03 243.51 80
6 06/22/2022 19:32:12 0.02,-137.17 0.69,-140.18 342.75 80
7 06/24/2022 19:20:01 0.03,-137.15 0.06,-137.22 8.32 80
8 06/26/2022 19:10:30 0.03,-137.13 -0.58,-134.26 326.07 80
9 06/27/2022 07:29:14 -0.02,-137.12 -0.54,-139.45 265.32 80
10 06/29/2022 07:17:03 -0.02,-137.09 0.11,-136.49 67.87 80
